Weather History for KRCA - November, 2012

Change the Weather History Date:

Friday, November 16, 2012

  Actual Average Record
Temperature  
Mean Temperature 47 °F -  
Max Temperature 63 °F 44 °F 66 °F (2001)
Min Temperature 31 °F 23 °F -3 °F (2014)
Degree Days  
Heating Degree Days 18    
Moisture  
Dew Point 28 °F    
Average Humidity 60    
Maximum Humidity 81    
Minimum Humidity 26    
Precipitation  
Precipitation 0.00 in - - ()
Sea Level Pressure  
Sea Level Pressure 30.06 in    
Wind  
Wind Speed 10 mph (South)    
Max Wind Speed 18 mph    
Max Gust Speed -    
Visibility 10 miles    
Events      
Averages and records for this station are not official NWS values.
T = Trace of Precipitation, MM = Missing Value Source: NWS Daily Summary

Daily Weather History Graph

Daily Weather History Graph

Search for Another Location

Airport or City:

Trip Planner

Search our weather history database for the weather conditions in past years. The results will help you decide how hot, cold, wet, or windy it might be!

Date:

Astronomy

Nov. 16, 2012 Rise Set
Actual Time 6:49 AM MST 4:24 PM MST
Civil Twilight 6:18 AM MST 4:55 PM MST
Nautical Twilight 5:43 AM MST 5:30 PM MST
Astronomical Twilight 5:09 AM MST 6:05 PM MST
Moon 9:48 AM MST (11/16) 7:25 PM MST (11/16)
Length of Visible Light 10h 37m
Length of Day
9h 34m
Waxing Crescent, 12% of the Moon is Illuminated
Nov 16
Waxing Crescent
Nov 20
First Quarter
Nov 28
Full
Dec 6
Last Quarter
Dec 13
New

Hourly Weather History & Observations

Time (MST) Temp. Windchill Dew Point Humidity Pressure Visibility Wind Dir Wind Speed Gust Speed Precip Events Conditions
12:55 AM 31.5 °F 19.8 °F 25.2 °F 78% 30.22 in 10.0 mi SSE 18.4 mph - N/A   Clear
1:55 AM 31.8 °F 21.4 °F 25.2 °F 76% 30.18 in 10.0 mi South 15.0 mph - N/A   Clear
2:55 AM 33.4 °F 22.3 °F 26.1 °F 74% 30.14 in 10.0 mi South 18.4 mph - N/A   Clear
3:55 AM 32.2 °F 21.8 °F 26.1 °F 78% 30.14 in 10.0 mi South 15.0 mph - N/A   Clear
4:55 AM 32.0 °F 22.5 °F 26.4 °F 80% 30.12 in 10.0 mi South 12.7 mph - N/A   Clear
5:55 AM 32.2 °F 26.7 °F 26.6 °F 80% 30.13 in 10.0 mi South 5.8 mph - N/A   Clear
6:55 AM 31.5 °F - 26.2 °F 81% 30.12 in 10.0 mi Calm Calm - N/A   Clear
7:55 AM 32.7 °F - 27.1 °F 80% 30.13 in 10.0 mi Calm Calm - N/A   Clear
8:55 AM 39.9 °F - 28.9 °F 65% 30.12 in 10.0 mi Calm Calm - N/A   Partly Cloudy
9:55 AM 45.5 °F 41.8 °F 30.4 °F 56% 30.10 in 10.0 mi South 6.9 mph - N/A   Partly Cloudy
10:55 AM 52.7 °F - 30.2 °F 42% 30.06 in 10.0 mi South 8.1 mph - N/A   Scattered Clouds
11:55 AM 58.5 °F - 29.7 °F 33% 30.02 in 10.0 mi South 8.1 mph - N/A   Scattered Clouds
12:55 PM 63.1 °F - 27.9 °F 26% 29.97 in 10.0 mi SSE 10.4 mph - N/A   Scattered Clouds
1:55 PM 61.3 °F - 28.8 °F 29% 29.97 in 10.0 mi South 9.2 mph - N/A   Mostly Cloudy
2:55 PM 58.1 °F - 28.6 °F 32% 29.98 in 10.0 mi ESE 5.8 mph - N/A   Mostly Cloudy
3:55 PM 54.9 °F - 27.9 °F 35% 29.99 in 10.0 mi Calm Calm - N/A   Clear
4:55 PM 45.1 °F 40.3 °F 31.1 °F 58% 30.01 in 10.0 mi NNW 9.2 mph - N/A   Partly Cloudy
5:55 PM 46.9 °F - 30.0 °F 52% 30.01 in 10.0 mi North 3.5 mph - N/A   Clear
6:55 PM 38.8 °F 35.4 °F 29.3 °F 69% 30.03 in 10.0 mi Variable 4.6 mph - N/A   Mostly Cloudy
7:55 PM 38.7 °F 34.3 °F 30.0 °F 71% 30.02 in 10.0 mi SSW 5.8 mph - N/A   Mostly Cloudy
8:55 PM 41.9 °F 39.0 °F 29.7 °F 62% 30.00 in 10.0 mi WNW 4.6 mph - N/A   Overcast
9:55 PM 41.4 °F 37.6 °F 27.0 °F 57% 29.98 in 10.0 mi SW 5.8 mph - N/A   Overcast
10:55 PM 40.1 °F - 26.2 °F 58% 29.97 in 10.0 mi Calm Calm - N/A   Scattered Clouds
11:55 PM 39.0 °F 35.7 °F 28.2 °F 65% 29.96 in 10.0 mi SW 4.6 mph - N/A   Overcast